Flag for United Kingdom Weather past 2 weeks in Peterborough, England, United Kingdom

Now
30 °F

Ice fog.


Feels Like: 23 °F
Forecast: N/A
Wind: 8 mph from West

Location: Wittering

Current Time: Dec 28, 2014 at 9:00:17 PM

Latest Report: Dec 28, 2014 at 7:50 PM


Visibility: 5 mi

Pressure: 30.60 "Hg

Humidity: 93%

Dew point: 28 °F

Location of PeterboroughLocation

Historic Weather in Peterborough — Graph

°F

Peterborough temperature yesterday

Maximum temperature yesterday: 36 °F (at 5:50 AM)
Minimum temperature yesterday: 32 °F (at 12:50 AM)
Average temperature yesterday: 35 °F

Past Weeks' High & Low Weather Summary

 TemperatureHumidityPressure
High57 °F (Dec 18, 11:50 AM)100% (Dec 15, 9:50 PM)30.60 "Hg (Dec 15, 9:50 PM)
Low30 °F (Dec 28, 6:50 PM)61% (Dec 24, 1:50 PM)29.50 "Hg (Dec 17, 5:50 AM)
Average44 °F86%29.95 "Hg
* Reported Dec 13 7:50 PM — Dec 28 7:50 PM, Peterborough, Weather by CustomWeather, © 2014

Note: Actual official high and low records may vary slightly from our data, if they occured in-between our weather recording intervals... More about our weather records

Advertising

Peterborough weather history for previous 24 hours

 ConditionsComfort  
Time TempWeatherWind HumidityBarometerVisibility
7:50 PM
Dec 28
30 °FIce fog.8 mph93%30.60 "Hg5 mi
6:50 PM30 °FHaze.9 mph93%30.60 "Hg5 mi
5:50 PM32 °FHaze.6 mph87%30.60 "Hg6 mi
4:50 PM32 °FPassing clouds.8 mph93%30.57 "HgN/A
3:50 PM34 °FPassing clouds.8 mph87%30.57 "HgN/A
2:50 PM37 °FChilly.7 mph81%30.51 "HgN/A
1:50 PM37 °FChilly.6 mph81%30.48 "HgN/A
12:50 PM39 °FChilly.6 mph75%30.48 "HgN/A
11:50 AM37 °FChilly.6 mph81%30.48 "HgN/A
10:50 AM37 °FChilly.5 mph75%30.45 "HgN/A
9:50 AM36 °FPassing clouds.7 mph81%30.42 "HgN/A
8:50 AM34 °FPartly sunny.7 mph87%30.39 "HgN/A
7:50 AM34 °FOvercast.7 mph87%30.36 "HgN/A
6:50 AM34 °FPassing clouds.8 mph87%30.30 "HgN/A
5:50 AM32 °FPassing clouds.10 mph93%30.24 "HgN/A
4:50 AM34 °FPassing clouds.9 mph87%30.21 "HgN/A
3:50 AM32 °FPassing clouds.8 mph93%30.18 "HgN/A
2:50 AM32 °FPassing clouds.7 mph93%30.15 "HgN/A
1:50 AM34 °FChilly.9 mph93%30.09 "HgN/A
12:50 AM34 °FPassing clouds.9 mph93%30.07 "HgN/A
11:50 PM
Dec 27
34 °FFog.12 mph93%30.01 "Hg5 mi
10:50 PM34 °FPassing clouds.10 mph93%29.98 "HgN/A
9:50 PM34 °FFog.12 mph100%29.95 "Hg5 mi
Weather by CustomWeather, © 2014

See weather overviewHow to use our weather pages